Port Huron, MI

9:50 AM EDT on October 19, 2017 (GMT -0400)
Saint Clair County International

Weather History for KPHN - October, 2012

Change the Weather History Date:

Wednesday, October 3, 2012

  Actual Average (KMTC) Record (KMTC)
Temperature  
Mean Temperature 62 °F -  
Max Temperature 69 °F 66 °F 84 °F (1953)
Min Temperature 55 °F 47 °F 29 °F (1974)
Degree Days  
Heating Degree Days 3    
Growing Degree Days 12 (Base 50)    
Moisture  
Dew Point 56 °F    
Average Humidity 85    
Maximum Humidity 100    
Minimum Humidity 64    
Precipitation  
Precipitation 0.00 in - - ()
Sea Level Pressure  
Sea Level Pressure 30.00 in    
Wind  
Wind Speed 2 mph (SSW)    
Max Wind Speed 14 mph    
Max Gust Speed 20 mph    
Visibility 8 miles    
Events Rain    
Averages and records for this station are not official NWS values.
T = Trace of Precipitation, MM = Missing Value Source: NWS Daily Summary

Daily Weather History Graph

Daily Weather History Graph

Search for Another Location

Airport or City:

Trip Planner

Search our weather history database for the weather conditions in past years. The results will help you decide how hot, cold, wet, or windy it might be!

Date:

Astronomy

Oct. 03, 2012 Rise Set
Actual Time 7:30 AM EDT 7:07 PM EDT
Civil Twilight 7:01 AM EDT 7:35 PM EDT
Nautical Twilight 6:29 AM EDT 8:08 PM EDT
Astronomical Twilight 5:55 AM EDT 8:41 PM EDT
Moon 8:52 PM EDT (10/3) 10:58 AM EDT (10/3)
Length of Visible Light 12h 33m
Length of Day
11h 36m
Waning Gibbous, 89% of the Moon is Illuminated
Oct 3
Waning Gibbous
Oct 8
Last Quarter
Oct 15
New
Oct 21
First Quarter
Oct 29
Full

Hourly Weather History & Observations

Time (EDT) Temp. Dew Point Humidity Pressure Visibility Wind Dir Wind Speed Gust Speed Precip Events Conditions
12:16 AM 55.4 °F 53.6 °F 94% 29.93 in 10.0 mi Calm Calm - N/A   Overcast
12:36 AM 57.2 °F 55.4 °F 94% 29.92 in 10.0 mi Calm Calm - N/A   Overcast
12:56 AM 57.2 °F 55.4 °F 94% 29.92 in 10.0 mi Calm Calm - N/A   Overcast
1:16 AM 57.2 °F 55.4 °F 94% 29.91 in 10.0 mi Calm Calm - N/A   Overcast
1:36 AM 59.0 °F 55.4 °F 88% 29.91 in 10.0 mi Calm Calm - N/A   Overcast
1:56 AM 59.0 °F 55.4 °F 88% 29.92 in 10.0 mi Calm Calm - N/A   Overcast
2:16 AM 59.0 °F 55.4 °F 88% 29.92 in 10.0 mi Calm Calm - N/A   Overcast
2:36 AM 59.0 °F 55.4 °F 88% 29.92 in 10.0 mi Calm Calm - N/A   Overcast
2:56 AM 59.0 °F 55.4 °F 88% 29.92 in 10.0 mi Calm Calm - N/A   Overcast
3:16 AM 59.0 °F 55.4 °F 88% 29.92 in 10.0 mi Calm Calm - N/A   Overcast
3:36 AM 59.0 °F 55.4 °F 88% 29.91 in 10.0 mi NE 3.5 mph - N/A   Overcast
3:56 AM 59.0 °F 53.6 °F 82% 29.93 in 10.0 mi Calm Calm - N/A   Overcast
4:16 AM 59.0 °F 55.4 °F 88% 29.93 in 10.0 mi Calm Calm - N/A   Overcast
4:36 AM 59.0 °F 55.4 °F 88% 29.93 in 10.0 mi Calm Calm - N/A   Overcast
4:56 AM 59.0 °F 55.4 °F 88% 29.93 in 10.0 mi Calm Calm - N/A   Overcast
5:16 AM 59.0 °F 55.4 °F 88% 29.94 in 10.0 mi Calm Calm - N/A   Overcast
5:36 AM 59.0 °F 55.4 °F 88% 29.94 in 10.0 mi Calm Calm - N/A   Overcast
5:56 AM 59.0 °F 55.4 °F 88% 29.95 in 10.0 mi Calm Calm - N/A   Overcast
6:16 AM 59.0 °F 55.4 °F 88% 29.95 in 10.0 mi Calm Calm - N/A   Overcast
6:36 AM 57.2 °F 55.4 °F 94% 29.96 in 10.0 mi Calm Calm - N/A   Overcast
6:56 AM 57.2 °F 55.4 °F 94% 29.95 in 10.0 mi Calm Calm - N/A Rain Light Rain
7:16 AM 57.2 °F 57.2 °F 100% 29.97 in 7.0 mi Calm Calm - N/A   Overcast
7:36 AM 57.2 °F 57.2 °F 100% 29.97 in 5.0 mi Calm Calm - N/A   Overcast
7:56 AM 57.2 °F 57.2 °F 100% 29.97 in 5.0 mi Calm Calm - N/A   Overcast
8:16 AM 57.2 °F 57.2 °F 100% 29.98 in 5.0 mi Calm Calm - N/A   Overcast
8:36 AM 57.2 °F 57.2 °F 100% 29.99 in 4.0 mi Calm Calm - N/A   Overcast
8:56 AM 59.0 °F 57.2 °F 94% 29.99 in 5.0 mi Calm Calm - N/A   Overcast
9:16 AM 59.0 °F 57.2 °F 94% 29.99 in 4.0 mi Calm Calm - N/A   Overcast
9:36 AM 59.0 °F 57.2 °F 94% 29.99 in 1.8 mi Calm Calm - N/A   Overcast
9:56 AM 59.0 °F 59.0 °F 100% 30.00 in 1.5 mi Calm Calm - N/A   Overcast
10:16 AM 59.0 °F 59.0 °F 100% 30.00 in 1.2 mi Calm Calm - N/A   Overcast
10:36 AM 59.0 °F 59.0 °F 100% 30.00 in 2.0 mi Calm Calm - N/A   Overcast
10:56 AM 60.8 °F 59.0 °F 94% 30.00 in 2.0 mi Calm Calm - N/A   Overcast
11:16 AM 60.8 °F 59.0 °F 94% 30.01 in 2.5 mi South 4.6 mph - N/A   Overcast
11:36 AM 60.8 °F 59.0 °F 94% 30.00 in 3.0 mi South 4.6 mph - N/A   Overcast
11:56 AM 62.6 °F 59.0 °F 88% 30.01 in 4.0 mi SSW 5.8 mph - N/A   Overcast
12:16 PM 62.6 °F 59.0 °F 88% 30.01 in 5.0 mi SW 4.6 mph - N/A   Overcast
12:36 PM 64.4 °F 59.0 °F 83% 30.01 in 7.0 mi SW 4.6 mph - N/A   Overcast
12:56 PM 64.4 °F 59.0 °F 83% 30.01 in 10.0 mi SSW 8.1 mph - N/A   Overcast
1:16 PM 66.2 °F 59.0 °F 78% 30.01 in 10.0 mi SW 5.8 mph - N/A   Overcast
1:36 PM 66.2 °F 59.0 °F 78% 30.01 in 10.0 mi SW 6.9 mph - N/A   Overcast
1:56 PM 68.0 °F 59.0 °F 73% 30.00 in 10.0 mi SSW 8.1 mph - N/A   Overcast
2:16 PM 68.0 °F 57.2 °F 68% 30.00 in 10.0 mi SSW 6.9 mph - N/A   Overcast
2:36 PM 69.8 °F 57.2 °F 64% 30.00 in 10.0 mi SSW 13.8 mph 18.4 mph N/A   Overcast
2:56 PM 68.0 °F 57.2 °F 68% 30.01 in 10.0 mi South 12.7 mph 18.4 mph N/A   Overcast
3:16 PM 68.0 °F 55.4 °F 64% 30.01 in 10.0 mi SSW 12.7 mph 16.1 mph N/A   Overcast
3:36 PM 66.2 °F 55.4 °F 68% 30.01 in 10.0 mi South 8.1 mph - N/A   Overcast
3:56 PM 66.2 °F 55.4 °F 68% 30.01 in 10.0 mi SSW 10.4 mph 17.3 mph N/A   Overcast
4:16 PM 66.2 °F 55.4 °F 68% 30.01 in 10.0 mi South 9.2 mph - N/A   Overcast
4:36 PM 66.2 °F 55.4 °F 68% 30.01 in 10.0 mi South 11.5 mph 19.6 mph N/A   Overcast
4:56 PM 66.2 °F 53.6 °F 64% 30.01 in 10.0 mi South 10.4 mph 17.3 mph N/A   Overcast
5:16 PM 64.4 °F 53.6 °F 68% 30.02 in 10.0 mi South 11.5 mph 18.4 mph N/A   Overcast
5:36 PM 64.4 °F 53.6 °F 68% 30.03 in 10.0 mi SSW 6.9 mph - N/A   Overcast
5:56 PM 64.4 °F 53.6 °F 68% 30.03 in 10.0 mi SSW 6.9 mph - N/A   Overcast
6:16 PM 62.6 °F 53.6 °F 72% 30.04 in 10.0 mi SSW 9.2 mph - N/A   Overcast
6:36 PM 62.6 °F 53.6 °F 72% 30.05 in 10.0 mi SSW 10.4 mph 19.6 mph N/A   Overcast
6:56 PM 62.6 °F 55.4 °F 77% 30.04 in 10.0 mi SSW 9.2 mph - N/A   Overcast
7:16 PM 60.8 °F 55.4 °F 82% 30.05 in 10.0 mi SSW 6.9 mph - N/A   Overcast
7:36 PM 60.8 °F 55.4 °F 82% 30.05 in 10.0 mi SSW 4.6 mph - N/A   Overcast
7:56 PM 60.8 °F 55.4 °F 82% 30.06 in 10.0 mi SSW 4.6 mph - N/A   Overcast
8:16 PM 60.8 °F 55.4 °F 82% 30.06 in 10.0 mi South 4.6 mph - N/A   Overcast
8:36 PM 60.8 °F 55.4 °F 82% 30.07 in 10.0 mi SSW 5.8 mph - N/A   Overcast
8:56 PM 60.8 °F 55.4 °F 82% 30.08 in 10.0 mi SSW 5.8 mph - N/A   Overcast
9:16 PM 60.8 °F 55.4 °F 82% 30.08 in 10.0 mi South 5.8 mph - N/A   Overcast
9:36 PM 60.8 °F 55.4 °F 82% 30.08 in 10.0 mi South 5.8 mph - N/A   Overcast
9:56 PM 60.8 °F 55.4 °F 82% 30.09 in 10.0 mi South 5.8 mph - N/A   Overcast
10:16 PM 59.0 °F 55.4 °F 88% 30.08 in 10.0 mi South 5.8 mph - N/A   Overcast
10:36 PM 59.0 °F 53.6 °F 82% 30.09 in 10.0 mi South 4.6 mph - N/A   Mostly Cloudy
10:56 PM 59.0 °F 53.6 °F 82% 30.09 in 10.0 mi South 4.6 mph - N/A   Mostly Cloudy
11:16 PM 59.0 °F 55.4 °F 88% 30.10 in 10.0 mi South 4.6 mph - N/A   Overcast
11:36 PM 59.0 °F 55.4 °F 88% 30.09 in 10.0 mi South 4.6 mph - N/A   Overcast
11:56 PM 59.0 °F 55.4 °F 88% 30.09 in 10.0 mi South 4.6 mph - N/A   Overcast